Weather History for PAOM - October, 2011

Change the Weather History Date:

Friday, October 28, 2011

  Actual Average Record
Temperature  
Mean Temperature 21 °F 23 °F  
Max Temperature 27 °F 29 °F 45 °F (1911)
Min Temperature 14 °F 18 °F -10 °F (1966)
Degree Days  
Heating Degree Days 44 42  
Month to date heating degree days 984 998  
Since 1 July heating degree days 2591 2528  
Cooling Degree Days 0    
Month to date cooling degree days 0  
Year to date cooling degree days 0  
Moisture  
Dew Point 18 °F    
Average Humidity 0    
Maximum Humidity 0    
Minimum Humidity 0    
Precipitation  
Precipitation 0.01 in 0.05 in 1.04 in (1945)
Month to date precipitation 1.55 1.48  
Year to date precipitation 15.79 14.38  
Snow  
Snow 0.10 in 0.30 in 6.90 in (1945)
Month to date snowfall 9.0 3.8  
Since 1 July snowfall 9.0 4.4  
Since 1 September snowfall 9.0 4.4  
Snow Depth 6.00 in    
Sea Level Pressure  
Sea Level Pressure 29.32 in    
Wind  
Wind Speed 4 mph (NNW)    
Max Wind Speed 10 mph    
Max Gust Speed 12 mph    
Visibility 10 miles    
Events Snow    
T = Trace of Precipitation, MM = Missing Value Source: NWS Daily Summary

Daily Weather History Graph

Daily Weather History Graph

Search for Another Location

Airport or City:

Trip Planner

Search our weather history database for the weather conditions in past years. The results will help you decide how hot, cold, wet, or windy it might be!

Date:

Astronomy

Oct. 28, 2011 Rise Set
Actual Time 10:34 AM AKDT 6:55 PM AKDT
Civil Twilight 9:41 AM AKDT 7:48 PM AKDT
Nautical Twilight 8:44 AM AKDT 8:45 PM AKDT
Astronomical Twilight 7:48 AM AKDT 9:41 PM AKDT
Moon 2:38 PM AKDT (10/28) 6:55 PM AKDT (10/28)
Length of Visible Light 10h 06m
Length of Day
8h 21m
Waxing Crescent, 6% of the Moon is Illuminated
Oct 28
Waxing Crescent
Nov 2
First Quarter
Nov 10
Full
Nov 18
Last Quarter
Nov 24
New

Hourly Weather History & Observations

Time (AKDT) Temp. Windchill Dew Point Humidity Pressure Visibility Wind Dir Wind Speed Gust Speed Precip Events Conditions
12:53 AM 25.0 °F 19.3 °F 23.0 °F 92% 29.36 in 10.0 mi NNE 4.6 mph - N/A   Overcast
1:53 AM 24.1 °F 18.2 °F 21.9 °F 91% 29.36 in 9.0 mi North 4.6 mph - 0.00 in Snow Light Snow
2:53 AM 23.0 °F - 21.0 °F 92% 29.36 in 10.0 mi Calm Calm - N/A   Overcast
3:53 AM 19.9 °F - 18.0 °F 92% 29.35 in 10.0 mi Calm Calm - N/A   Mostly Cloudy
4:00 AM 19.4 °F - 17.6 °F 93% 29.35 in 10.0 mi Calm Calm - N/A   Overcast
4:53 AM 19.0 °F - 17.1 °F 92% 29.34 in 10.0 mi Calm Calm - N/A   Overcast
5:53 AM 19.0 °F 12.3 °F 17.1 °F 92% 29.34 in 10.0 mi NNW 4.6 mph - N/A   Overcast
6:53 AM 19.9 °F - 17.1 °F 89% 29.33 in 10.0 mi Calm Calm - N/A   Overcast
7:23 AM 19.4 °F - 17.6 °F 93% 29.32 in 10.0 mi Calm Calm - N/A   Overcast
7:36 AM 19.4 °F - 17.6 °F 93% 29.32 in 10.0 mi Calm Calm - N/A   Overcast
7:53 AM 19.0 °F - 18.0 °F 96% 29.33 in 10.0 mi Calm Calm - N/A   Overcast
8:53 AM 19.9 °F 14.9 °F 18.0 °F 92% 29.32 in 10.0 mi North 3.5 mph - N/A   Overcast
9:53 AM 17.1 °F 11.7 °F 16.0 °F 96% 29.32 in 10.0 mi North 3.5 mph - N/A   Overcast
10:21 AM 19.4 °F 12.8 °F 17.6 °F 93% 29.32 in 10.0 mi North 4.6 mph - N/A   Overcast
10:53 AM 19.9 °F 14.9 °F 18.0 °F 92% 29.32 in 10.0 mi NW 3.5 mph - N/A   Overcast
11:53 AM 21.9 °F 13.4 °F 18.0 °F 85% 29.33 in 10.0 mi NNW 6.9 mph - N/A   Overcast
12:18 PM 21.2 °F 11.7 °F 17.6 °F 86% 29.32 in 10.0 mi North 8.1 mph - N/A   Overcast
12:53 PM 21.9 °F 14.5 °F 19.0 °F 89% 29.33 in 10.0 mi North 5.8 mph - N/A   Mostly Cloudy
1:53 PM 24.1 °F 15.2 °F 19.9 °F 84% 29.33 in 10.0 mi NNW 8.1 mph - N/A   Overcast
2:53 PM 24.1 °F 14.4 °F 19.9 °F 84% 29.32 in 10.0 mi North 9.2 mph - N/A   Overcast
2:58 PM 24.8 °F 15.3 °F 19.4 °F 80% 29.32 in 1.8 mi North 9.2 mph - N/A   Overcast
2:59 PM 24.8 °F 15.3 °F 19.4 °F 80% 29.32 in 10.0 mi North 9.2 mph - N/A   Overcast
3:53 PM 23.0 °F 15.8 °F 18.0 °F 81% 29.32 in 10.0 mi NNW 5.8 mph - N/A   Mostly Cloudy
4:43 PM 21.2 °F 12.6 °F 17.6 °F 86% 29.31 in 10.0 mi NNW 6.9 mph - N/A   Mostly Cloudy
4:53 PM 21.9 °F 12.5 °F 17.1 °F 82% 29.31 in 10.0 mi NNW 8.1 mph - N/A   Mostly Cloudy
5:46 PM 19.4 °F 8.6 °F 15.8 °F 86% 29.30 in 10.0 mi North 9.2 mph - N/A   Mostly Cloudy
5:53 PM 19.9 °F 9.3 °F 15.1 °F 81% 29.30 in 10.0 mi North 9.2 mph - N/A   Mostly Cloudy
6:53 PM 16.0 °F 7.4 °F 12.0 °F 84% 29.30 in 10.0 mi North 5.8 mph - N/A   Scattered Clouds
7:53 PM 17.1 °F 6.6 °F 14.0 °F 88% 29.30 in 10.0 mi North 8.1 mph - N/A   Mostly Cloudy
8:53 PM 17.1 °F 11.7 °F 12.9 °F 84% 29.31 in 10.0 mi North 3.5 mph - N/A   Mostly Cloudy
9:51 PM 19.4 °F 9.5 °F 15.8 °F 86% 29.31 in 10.0 mi NNW 8.1 mph - N/A   Overcast
9:53 PM 21.0 °F 12.4 °F 16.0 °F 81% 29.31 in 10.0 mi NNW 6.9 mph - N/A   Overcast
10:43 PM 23.0 °F 14.7 °F 17.6 °F 80% 29.31 in 10.0 mi NNW 6.9 mph - 0.00 in Snow Light Freezing Drizzle
10:53 PM 23.0 °F 14.7 °F 19.0 °F 85% 29.31 in 10.0 mi NNW 6.9 mph - 0.00 in Snow Light Freezing Drizzle
11:15 PM 23.0 °F 14.7 °F 19.4 °F 86% 29.31 in 4.0 mi NNW 6.9 mph - 0.00 in Snow Light Snow
11:53 PM 23.0 °F - 18.0 °F 81% 29.32 in 8.0 mi Calm Calm - 0.01 in Snow Light Snow